Total_Precipitation_Accumulation
0.00 0.00 0.00 0.00 0.00 0.00 0.00 0.00 0.00 0.00 0.00 0.00 0.00 0.00 0.00 0.00 0.01 0.03 0.11 0.31 0.54 0.57 0.63 0.54 0.31 0.20 0.19 0.28 0.29 0.28 0.25 0.14 0.06 0.04 0.03 0.04 0.04 0.02 0.03 0.05 0.07 0.07 0.07 0.10
0.00 0.00 0.00 0.00 0.00 0.00 0.00 0.00 0.00 0.00 0.00 0.00 0.00 0.00 0.00 0.00 0.00 0.01 0.02 0.06 0.17 0.26 0.29 0.30 0.25 0.26 0.44 0.60 0.56 0.47 0.34 0.21 0.13 0.10 0.08 0.06 0.04 0.03 0.04 0.04 0.04 0.03 0.03 0.05
0.00 0.00 0.00 0.00 0.00 0.00 0.00 0.00 0.00 0.00 0.00 0.00 0.00 0.00 0.00 0.00 0.00 0.01 0.01 0.02 0.05 0.12 0.20 0.26 0.29 0.32 0.40 0.42 0.44 0.45 0.38 0.26 0.20 0.16 0.11 0.07 0.06 0.05 0.03 0.02 0.01 0.02 0.03 0.05
0.00 0.00 0.00 0.00 0.00 0.00 0.00 0.00 0.00 0.00 0.00 0.00 0.00 0.00 0.00 0.00 0.00 0.00 0.01 0.03 0.06 0.12 0.17 0.23 0.26 0.28 0.31 0.31 0.36 0.40 0.35 0.27 0.23 0.20 0.15 0.10 0.07 0.04 0.02 0.01 0.02 0.04 0.06 0.11
0.00 0.00 0.00 0.00 0.00 0.00 0.00 0.00 0.00 0.00 0.00 0.00 0.00 0.00 0.00 0.00 0.00 0.01 0.05 0.09 0.16 0.21 0.23 0.22 0.23 0.20 0.19 0.19 0.22 0.23 0.21 0.18 0.16 0.13 0.11 0.08 0.05 0.03 0.02 0.03 0.06 0.09 0.12 0.19
0.00 0.00 0.00 0.00 0.00 0.00 0.00 0.00 0.00 0.00 0.00 0.00 0.00 0.00 0.00 0.00 0.00 0.04 0.16 0.24 0.31 0.37 0.37 0.34 0.30 0.23 0.16 0.12 0.11 0.10 0.10 0.09 0.07 0.05 0.05 0.04 0.02 0.02 0.02 0.03 0.07 0.08 0.12 0.18
0.00 0.00 0.01 0.00 0.00 0.00 0.00 0.01 0.06 0.03 0.00 0.00 0.00 0.00 0.01 0.01 0.01 0.06 0.22 0.40 0.49 0.44 0.37 0.34 0.30 0.24 0.15 0.09 0.06 0.05 0.05 0.05 0.04 0.03 0.04 0.04 0.02 0.02 0.05 0.08 0.10 0.11 0.12 0.14
0.00 0.01 0.04 0.02 0.01 0.01 0.02 0.05 0.19 0.16 0.04 0.02 0.01 0.01 0.06 0.08 0.12 0.23 0.37 0.47 0.45 0.36 0.30 0.27 0.23 0.19 0.15 0.09 0.05 0.04 0.04 0.06 0.06 0.05 0.05 0.03 0.01 0.02 0.04 0.05 0.09 0.10 0.11 0.11
0.01 0.01 0.01 0.01 0.01 0.02 0.05 0.09 0.11 0.24 0.18 0.12 0.02 0.02 0.09 0.15 0.29 0.51 0.67 0.66 0.55 0.40 0.28 0.22 0.17 0.13 0.11 0.08 0.06 0.07 0.07 0.05 0.04 0.03 0.02 0.01 0.00 0.01 0.03 0.05 0.09 0.12 0.14 0.12
0.01 0.00 0.00 0.00 0.00 0.01 0.03 0.05 0.07 0.20 0.21 0.19 0.06 0.04 0.13 0.35 0.49 0.60 0.71 0.64 0.46 0.32 0.22 0.18 0.13 0.11 0.09 0.07 0.06 0.07 0.06 0.03 0.01 0.01 0.00 0.00 0.00 0.01 0.03 0.04 0.05 0.07 0.09 0.11
0.00 0.00 0.00 0.00 0.00 0.02 0.05 0.08 0.15 0.23 0.22 0.25 0.21 0.17 0.22 0.36 0.51 0.60 0.61 0.49 0.33 0.22 0.14 0.12 0.11 0.11 0.10 0.06 0.06 0.07 0.07 0.06 0.04 0.02 0.01 0.00 0.00 0.01 0.01 0.01 0.04 0.07 0.07 0.08
0.00 0.00 0.00 0.00 0.00 0.01 0.03 0.07 0.16 0.26 0.24 0.24 0.26 0.19 0.13 0.16 0.24 0.32 0.34 0.29 0.23 0.17 0.14 0.14 0.13 0.10 0.07 0.05 0.04 0.05 0.05 0.04 0.02 0.02 0.02 0.00 0.01 0.00 0.00 0.00 0.00 0.01 0.02 0.04
0.00 0.00 0.01 0.01 0.01 0.03 0.03 0.04 0.06 0.10 0.13 0.11 0.13 0.10 0.10 0.17 0.25 0.36 0.46 0.48 0.39 0.28 0.17 0.11 0.09 0.06 0.02 0.01 0.02 0.03 0.03 0.03 0.01 0.02 0.03 0.02 0.00 0.00 0.00 0.00 0.00 0.00 0.00 0.00
0.00 0.00 0.01 0.01 0.01 0.01 0.01 0.01 0.03 0.08 0.15 0.12 0.08 0.04 0.10 0.18 0.28 0.39 0.43 0.39 0.30 0.20 0.11 0.06 0.03 0.02 0.01 0.00 0.00 0.01 0.02 0.02 0.01 0.01 0.03 0.05 0.01 0.00 0.00 0.00 0.00 0.00 0.00 0.00
0.00 0.00 0.00 0.00 0.00 0.00 0.00 0.00 0.00 0.02 0.09 0.16 0.13 0.09 0.11 0.17 0.19 0.23 0.24 0.20 0.15 0.11 0.06 0.03 0.02 0.01 0.00 0.00 0.00 0.00 0.02 0.03 0.03 0.03 0.04 0.06 0.05 0.01 0.00 0.00 0.00 0.00 0.00 0.00
0.00 0.00 0.00 0.00 0.00 0.00 0.00 0.00 0.00 0.01 0.03 0.07 0.10 0.13 0.17 0.17 0.18 0.19 0.17 0.14 0.12 0.10 0.06 0.03 0.01 0.01 0.01 0.00 0.00 0.01 0.03 0.04 0.05 0.06 0.05 0.08 0.09 0.06 0.01 0.00 0.00 0.00 0.00 0.00
0.00 0.00 0.00 0.00 0.00 0.00 0.01 0.00 0.00 0.01 0.01 0.03 0.11 0.18 0.18 0.18 0.18 0.16 0.14 0.12 0.09 0.07 0.04 0.03 0.01 0.00 0.00 0.00 0.01 0.02 0.03 0.02 0.04 0.07 0.08 0.08 0.09 0.12 0.07 0.02 0.01 0.01 0.02 0.03
0.00 0.00 0.00 0.00 0.00 0.03 0.01 0.00 0.00 0.02 0.01 0.01 0.04 0.07 0.08 0.07 0.04 0.03 0.03 0.03 0.02 0.02 0.02 0.01 0.01 0.00 0.00 0.00 0.02 0.05 0.04 0.03 0.04 0.05 0.04 0.03 0.03 0.06 0.07 0.05 0.03 0.03 0.06 0.09
0.00 0.00 0.00 0.00 0.00 0.01 0.00 0.00 0.00 0.02 0.01 0.01 0.01 0.01 0.00 0.01 0.02 0.04 0.01 0.01 0.00 0.00 0.00 0.00 0.01 0.00 0.00 0.01 0.04 0.09 0.09 0.09 0.09 0.08 0.07 0.05 0.03 0.02 0.02 0.02 0.01 0.01 0.03 0.07
0.00 0.00 0.00 0.00 0.00 0.01 0.00 0.00 0.00 0.00 0.01 0.00 0.00 0.00 0.00 0.01 0.06 0.09 0.03 0.01 0.00 0.00 0.00 0.01 0.01 0.01 0.02 0.04 0.07 0.11 0.15 0.17 0.16 0.14 0.10 0.06 0.05 0.04 0.03 0.03 0.02 0.01 0.01 0.01
0.00 0.00 0.00 0.00 0.00 0.00 0.00 0.00 0.00 0.01 0.04 0.01 0.00 0.00 0.00 0.00 0.02 0.03 0.02 0.01 0.00 0.01 0.01 0.01 0.02 0.01 0.04 0.05 0.07 0.12 0.15 0.15 0.12 0.07 0.04 0.04 0.04 0.06 0.09 0.08 0.05 0.03 0.02 0.01
0.00 0.00 0.00 0.00 0.01 0.00 0.00 0.00 0.00 0.01 0.00 0.00 0.00 0.00 0.00 0.00 0.00 0.00 0.00 0.00 0.00 0.00 0.01 0.01 0.03 0.02 0.03 0.03 0.04 0.06 0.07 0.07 0.05 0.03 0.03 0.03 0.03 0.05 0.11 0.19 0.17 0.15 0.11 0.04
0.00 0.00 0.00 0.00 0.00 0.00 0.00 0.00 0.00 0.00 0.00 0.00 0.00 0.00 0.00 0.00 0.00 0.00 0.00 0.00 0.00 0.00 0.00 0.01 0.04 0.04 0.05 0.04 0.06 0.09 0.05 0.02 0.01 0.02 0.02 0.02 0.01 0.02 0.05 0.11 0.15 0.15 0.11 0.04
0.00 0.00 0.00 0.00 0.00 0.00 0.00 0.00 0.00 0.00 0.00 0.00 0.00 0.00 0.00 0.00 0.00 0.00 0.00 0.00 0.00 0.00 0.01 0.02 0.04 0.08 0.11 0.10 0.10 0.10 0.04 0.01 0.01 0.01 0.02 0.02 0.01 0.00 0.00 0.01 0.03 0.05 0.04 0.02
0.00 0.00 0.00 0.00 0.00 0.00 0.00 0.00 0.00 0.00 0.00 0.00 0.00 0.00 0.00 0.00 0.00 0.00 0.00 0.00 0.00 0.00 0.01 0.02 0.04 0.07 0.09 0.11 0.11 0.09 0.06 0.05 0.05 0.03 0.02 0.01 0.01 0.01 0.01 0.01 0.02 0.03 0.03 0.02
0.00 0.00 0.00 0.00 0.00 0.00 0.00 0.00 0.00 0.00 0.00 0.00 0.00 0.00 0.00 0.00 0.00 0.00 0.00 0.00 0.00 0.00 0.00 0.01 0.02 0.05 0.06 0.06 0.05 0.05 0.06 0.07 0.07 0.08 0.06 0.05 0.04 0.05 0.08 0.04 0.01 0.01 0.01 0.01